[[{"header":{"parameterUnit":"m.s-1","parameterCategory":1,"la1":30.2991,"la2":30.254,"lo1":-89.0895,"lo2":-89.0444,"dy":0.0017,"dx":0.0017,"nx":28,"ny":28,"refTime":"2025-12-18T09:00:00:Z","depth":0,"parameterNumber":2,"parameterNumberName":"U-component_of_WINDS"},"data":[0,0,0,0,0,0,0,0,0,0,0,0,0,0,0,0,0,0,0,0,0,0,0,0,0,0,0,0,0,0,0,0,0,0,0,0,0,0,0,0,0,0,0,0,0,0,0,0,0,0,0,0,0,0,0,0,0,0,-0.3536,-0.3537,0,-0.3575,-0.3576,-0.3576,-0.3566,-0.3565,-0.3564,-0.3564,-0.3605,-0.3607,-0.3608,0,0,0,0,0,0,0,0,0,0,0,0,0,-0.3455,-0.3456,-0.3536,-0.3537,-0.3537,-0.3575,-0.3576,-0.3576,-0.3566,-0.3565,-0.3564,-0.3563,-0.3604,-0.3606,-0.3609,0,0,0,0,0,0,0,0,0,0,0,0,0,-0.3491,-0.3457,-0.3536,-0.3537,-0.3537,-0.3575,-0.3576,-0.3576,-0.3566,-0.3565,-0.3564,-0.3563,-0.3604,-0.3606,-0.3609,-0.3649,0,0,-0.3617,-0.3618,0,0,0,0,0,0,0,0,-0.3489,-0.3494,-0.3536,-0.3537,-0.3537,-0.3564,-0.3562,-0.3601,-0.3566,-0.3555,-0.3564,-0.3562,-0.3592,-0.3596,-0.3606,-0.3651,-0.3653,-0.3618,-0.3619,-0.362,-0.3621,0,0,0,0,0,0,0,-0.3487,-0.3493,-0.3552,-0.3537,-0.3537,-0.3535,-0.3539,-0.3569,-0.358,-0.3556,-0.3555,-0.356,-0.3593,-0.3603,-0.3607,-0.3653,-0.3617,-0.362,-0.3622,-0.3623,-0.3734,-0.3735,0,0,0,0,0,0,-0.3484,-0.3491,-0.355,-0.3553,-0.351,-0.3538,-0.3542,-0.3557,-0.358,-0.3582,-0.3561,-0.3559,-0.3599,-0.3604,-0.3608,-0.3657,-0.362,-0.3623,-0.3624,-0.3733,-0.3734,-0.3736,0,0,0,0,0,0,-0.3482,-0.3489,-0.3549,-0.3522,-0.3529,-0.354,-0.3557,-0.3558,-0.3569,-0.3583,-0.3585,-0.357,-0.3598,-0.3604,-0.3639,-0.3659,-0.3624,-0.3627,-0.3731,-0.3733,-0.3735,-0.3756,0,0,0,0,0,0,-0.348,-0.3488,-0.3504,-0.3522,-0.353,-0.3579,-0.3558,-0.356,-0.3574,-0.3572,-0.3592,-0.3595,-0.3598,-0.3635,-0.3642,-0.3662,-0.3629,-0.3729,-0.3732,-0.3734,-0.3753,-0.3758,-0.3762,0,0,0,0,0,-0.3477,-0.3508,-0.3504,-0.3512,-0.355,-0.358,-0.3585,-0.3588,-0.3575,-0.3591,-0.36,-0.3594,-0.3655,-0.3639,-0.3646,-0.3667,-0.3728,-0.3731,-0.3734,-0.3751,-0.3757,-0.3762,0,0,0,0,0,0,-0.3492,-0.351,-0.3507,-0.3545,-0.3561,-0.3578,-0.3598,-0.3594,-0.3614,-0.3612,-0.3615,-0.362,-0.3655,-0.3665,-0.3646,-0.3708,-0.369,-0.3695,-0.37,-0.3706,-0.371,-0.3708,-0.3631,0,0,0,0,0,-0.35,-0.3522,-0.3537,-0.357,-0.3578,-0.3586,-0.36,-0.36,-0.3617,-0.3624,-0.3636,-0.3653,-0.3676,-0.3691,-0.3713,-0.3754,-0.3759,-0.3772,-0.3777,-0.378,-0.3785,-0.3808,-0.3814,-0.3745,-0.3745,-0.3745,0,0,-0.3516,-0.3529,-0.3543,-0.3573,-0.3586,-0.361,-0.3592,-0.3618,-0.3636,-0.3628,-0.3662,-0.3671,-0.369,-0.3728,-0.3746,-0.3737,-0.3804,-0.3784,-0.3787,-0.3789,-0.3811,-0.3818,-0.3824,-0.3747,-0.3747,-0.3747,0,0,-0.3559,-0.357,-0.3599,-0.3612,-0.3631,-0.3636,-0.3643,-0.3661,-0.3666,-0.37,-0.3695,-0.3716,-0.3756,-0.377,-0.3782,-0.383,-0.3825,-0.3837,-0.386,-0.3883,-0.3888,-0.3893,-0.3911,-0.3917,-0.3841,-0.3841,-0.3841,0,-0.3577,-0.3613,-0.3614,-0.3641,-0.3654,-0.3647,-0.3677,-0.3689,-0.3715,-0.3724,-0.3714,-0.3764,-0.3776,-0.3818,-0.3829,-0.3839,-0.3848,-0.3835,-0.3887,-0.3892,-0.3896,-0.3913,-0.392,-0.3842,-0.3842,-0.3842,-0.3842,0,-0.3635,-0.3659,-0.368,-0.3704,-0.372,-0.3748,-0.3754,-0.377,-0.3769,-0.3776,-0.381,-0.3825,-0.385,-0.3859,-0.3859,-0.3901,-0.3895,-0.3886,-0.3869,-0.3904,-0.392,-0.3927,-0.3844,-0.3844,-0.3843,-0.3843,0,0,-0.3689,-0.3713,-0.3721,-0.3732,-0.3752,-0.3772,-0.3799,-0.3823,-0.3837,-0.3855,-0.3878,-0.3912,-0.3903,-0.3917,-0.3919,-0.3938,-0.3976,-0.3926,-0.3927,-0.3936,-0.4024,-0.4031,-0.4038,-0.3972,-0.3973,-0.3974,-0.4022,0,-0.3734,-0.3782,-0.3784,-0.3828,-0.3851,-0.3845,-0.3869,-0.3884,-0.3891,-0.3912,-0.392,-0.3944,-0.393,-0.3939,-0.3958,-0.3967,-0.3993,-0.3963,-0.3995,-0.3996,-0.3992,-0.4047,-0.4055,-0.4099,-0.4028,-0.4029,-0.403,0,-0.3793,-0.3812,-0.3858,-0.3876,-0.3885,-0.3907,-0.3929,-0.3949,-0.3966,-0.397,-0.3986,-0.3984,-0.4013,-0.3993,-0.4033,-0.4013,-0.4025,-0.4032,-0.4034,-0.4038,-0.4016,-0.4053,-0.4113,-0.4121,-0.404,-0.4039,-0.4038,0,-0.3829,-0.3866,-0.3899,-0.3908,-0.3929,-0.3944,-0.3954,-0.397,-0.3984,-0.4004,-0.4013,-0.4036,-0.4049,-0.4067,-0.4071,-0.4057,-0.4111,-0.4092,-0.4116,-0.4116,-0.4129,-0.4128,-0.4193,-0.4135,-0.4135,-0.4135,-0.4135,0,-0.3879,-0.3908,-0.3915,-0.3936,-0.3968,-0.397,-0.4002,-0.401,-0.4025,-0.4047,-0.4042,-0.4063,-0.4068,-0.409,-0.4093,-0.4126,-0.4132,-0.4136,-0.4137,-0.4137,-0.4137,-0.4147,-0.4144,-0.4137,-0.4136,-0.4136,-0.4136,0,-0.3926,-0.3931,-0.3967,-0.3983,-0.3988,-0.4011,-0.4026,-0.4045,-0.4051,-0.4079,-0.4086,-0.4096,-0.4121,-0.4127,-0.4158,-0.416,-0.42,-0.4197,-0.4194,-0.4194,-0.4218,-0.4216,-0.4292,-0.4302,-0.4237,-0.4238,-0.4238,0,-0.3958,-0.398,-0.3999,-0.4013,-0.4023,-0.4046,-0.4061,-0.4064,-0.4079,-0.4101,-0.4118,-0.4143,-0.4163,-0.4204,-0.4214,-0.4238,-0.4236,-0.4261,-0.424,-0.4239,-0.4238,-0.4237,-0.4239,-0.4266,-0.4266,-0.4267,-0.4267,0,-0.4016,-0.4017,-0.4038,-0.406,-0.4078,-0.4096,-0.4112,-0.4124,-0.413,-0.4147,-0.4173,-0.4189,-0.422,-0.4245,-0.4268,-0.4278,-0.4274,-0.4274,-0.4281,-0.4282,-0.4279,-0.4282,-0.4206,-0.4273,-0.4272,-0.4272,-0.4271,-0.4271,-0.4057,-0.4076,-0.4092,-0.4116,-0.4129,-0.4145,-0.4164,-0.4172,-0.4194,-0.4219,-0.4219,-0.4248,-0.4265,-0.4296,-0.4307,-0.433,-0.4322,-0.4332,-0.4334,-0.4337,-0.434,-0.4275,-0.4334,-0.4334,-0.4334,-0.4333,-0.4333,0,-0.4115,-0.4125,-0.4146,-0.417,-0.4189,-0.4182,-0.42,-0.4217,-0.4242,-0.4258,-0.4277,-0.4307,-0.4332,-0.4343,-0.4367,-0.4383,-0.4382,-0.439,-0.4389,-0.4392,-0.4345,-0.4337,-0.439,-0.439,-0.439,-0.439,-0.439,-0.439,-0.4147,-0.418,-0.4183,-0.4223,-0.4233,-0.426,-0.4271,-0.4286,-0.4299,-0.4332,-0.4352,-0.436,-0.4374,-0.4399,-0.4421,-0.4424,-0.4434,-0.4442,-0.4444,-0.4401,-0.4395,-0.4389,-0.4382,-0.4444,-0.4444,-0.4489,-0.449,-0.449]},{"header":{"parameterUnit":"m.s-1","parameterCategory":1,"la1":30.2991,"la2":30.254,"lo1":-89.0895,"lo2":-89.0444,"dy":0.0017,"dx":0.0017,"nx":28,"ny":28,"refTime":"2025-12-18T09:00:00:Z","depth":0,"parameterNumber":3,"parameterNumberName":"V-component_of_WINDS"},"data":[0,0,0,0,0,0,0,0,0,0,0,0,0,0,0,0,0,0,0,0,0,0,0,0,0,0,0,0,0,0,0,0,0,0,0,0,0,0,0,0,0,0,0,0,0,0,0,0,0,0,0,0,0,0,0,0,0,0,-3.3397,-3.3399,0,-3.3533,-3.3534,-3.3536,-3.3515,-3.3513,-3.3511,-3.3508,-3.3643,-3.3649,-3.3654,0,0,0,0,0,0,0,0,0,0,0,0,0,-3.3119,-3.3124,-3.3397,-3.3399,-3.3401,-3.3532,-3.3534,-3.3536,-3.3516,-3.3513,-3.351,-3.3507,-3.3641,-3.3648,-3.3655,0,0,0,0,0,0,0,0,0,0,0,0,0,-3.3245,-3.3126,-3.3397,-3.3406,-3.3409,-3.3532,-3.3534,-3.3536,-3.3516,-3.3513,-3.3509,-3.3506,-3.3639,-3.3647,-3.3656,-3.3777,0,0,-3.3682,-3.3686,0,0,0,0,0,0,0,0,-3.3238,-3.3256,-3.3403,-3.3406,-3.3409,-3.3504,-3.3485,-3.3617,-3.3517,-3.3475,-3.3508,-3.3504,-3.3599,-3.3611,-3.3644,-3.3783,-3.3789,-3.3683,-3.3688,-3.3692,-3.3694,0,0,0,0,0,0,0,-3.3229,-3.325,-3.3451,-3.3405,-3.3409,-3.3403,-3.3417,-3.351,-3.3555,-3.3479,-3.3477,-3.3494,-3.36,-3.3635,-3.3647,-3.3791,-3.3682,-3.369,-3.3695,-3.3699,-3.4039,-3.4043,0,0,0,0,0,0,-3.3219,-3.3242,-3.3446,-3.3455,-3.3313,-3.3411,-3.3427,-3.3476,-3.3554,-3.3562,-3.3497,-3.3492,-3.3622,-3.3637,-3.3651,-3.38,-3.3691,-3.37,-3.3704,-3.4035,-3.404,-3.4044,0,0,0,0,0,0,-3.3213,-3.3237,-3.3441,-3.3348,-3.3374,-3.3419,-3.3475,-3.3481,-3.3516,-3.3567,-3.3575,-3.3525,-3.362,-3.3639,-3.3747,-3.3804,-3.3703,-3.3711,-3.403,-3.4037,-3.4042,-3.4097,0,0,0,0,0,0,-3.3205,-3.3235,-3.3282,-3.335,-3.3379,-3.3535,-3.3479,-3.3486,-3.3532,-3.3527,-3.3596,-3.3604,-3.3619,-3.3734,-3.3755,-3.3814,-3.3718,-3.4026,-3.4033,-3.404,-3.409,-3.4104,-3.4115,0,0,0,0,0,-3.3195,-3.3291,-3.3284,-3.3309,-3.3439,-3.3538,-3.3555,-3.3572,-3.3536,-3.3584,-3.3617,-3.3602,-3.3794,-3.3745,-3.3769,-3.3831,-3.4022,-3.4031,-3.4039,-3.4084,-3.4101,-3.4115,0,0,0,0,0,0,-3.3227,-3.33,-3.3294,-3.3414,-3.3471,-3.3535,-3.3595,-3.3589,-3.3655,-3.3648,-3.3665,-3.368,-3.3789,-3.3821,-3.3765,-3.3953,-3.3903,-3.3917,-3.3929,-3.3945,-3.3958,-3.3948,-3.3725,0,0,0,0,0,-3.3248,-3.3324,-3.3383,-3.3484,-3.3513,-3.3549,-3.3593,-3.3601,-3.3659,-3.3683,-3.3723,-3.378,-3.3853,-3.3901,-3.3971,-3.4094,-3.4109,-3.4149,-3.4162,-3.4172,-3.4184,-3.4253,-3.4271,-3.4073,-3.4073,-3.4073,0,0,-3.3292,-3.3342,-3.3388,-3.3492,-3.3536,-3.3614,-3.3569,-3.3652,-3.371,-3.3695,-3.38,-3.3832,-3.3895,-3.4012,-3.4065,-3.4041,-3.4242,-3.4183,-3.4191,-3.4197,-3.4264,-3.4282,-3.4299,-3.4079,-3.4078,-3.4077,0,0,-3.3413,-3.3458,-3.3548,-3.3594,-3.3663,-3.3687,-3.3708,-3.3774,-3.3795,-3.3901,-3.3892,-3.396,-3.4085,-3.4132,-3.4172,-3.4313,-3.4301,-3.4335,-3.4401,-3.4468,-3.4484,-3.4498,-3.4549,-3.4567,-3.4346,-3.4346,-3.4347,0,-3.3459,-3.3577,-3.3594,-3.368,-3.3726,-3.3718,-3.3809,-3.3852,-3.394,-3.3971,-3.3944,-3.4103,-3.4145,-3.4273,-3.4307,-3.434,-3.4365,-3.4327,-3.4481,-3.4495,-3.4508,-3.4557,-3.4576,-3.435,-3.435,-3.4349,-3.4349,0,-3.3631,-3.3712,-3.3777,-3.3864,-3.3917,-3.4004,-3.4035,-3.4087,-3.4091,-3.4117,-3.4226,-3.4276,-3.4357,-3.4388,-3.4392,-3.4517,-3.4501,-3.4477,-3.4427,-3.453,-3.4577,-3.4596,-3.4355,-3.4354,-3.4353,-3.4352,0,0,-3.3774,-3.3872,-3.3895,-3.3935,-3.4011,-3.4074,-3.4162,-3.4243,-3.4287,-3.4348,-3.4422,-3.4529,-3.4509,-3.4554,-3.4563,-3.4622,-3.4732,-3.4591,-3.4593,-3.4616,-3.4874,-3.4892,-3.4914,-3.4725,-3.4728,-3.4731,-3.4869,0,-3.3903,-3.406,-3.4079,-3.4218,-3.4294,-3.4288,-3.4364,-3.4419,-3.4447,-3.4514,-3.4544,-3.4621,-3.4587,-3.4614,-3.4672,-3.4706,-3.4784,-3.4696,-3.4793,-3.4797,-3.4779,-3.4938,-3.4957,-3.5085,-3.4887,-3.489,-3.4893,0,-3.4074,-3.4143,-3.429,-3.4357,-3.439,-3.4458,-3.4535,-3.46,-3.4662,-3.4678,-3.473,-3.4732,-3.4822,-3.4768,-3.4893,-3.4833,-3.4874,-3.4897,-3.4902,-3.4912,-3.4851,-3.4953,-3.5126,-3.5146,-3.4921,-3.4919,-3.4917,0,-3.4166,-3.4294,-3.4399,-3.4434,-3.4514,-3.4563,-3.4599,-3.4657,-3.4706,-3.4772,-3.4804,-3.4879,-3.492,-3.4979,-3.5001,-3.496,-3.5125,-3.5073,-3.5141,-3.514,-3.5176,-3.5174,-3.5359,-3.5201,-3.5201,-3.52,-3.52,0,-3.4308,-3.4399,-3.4442,-3.4507,-3.4608,-3.4629,-3.4728,-3.4761,-3.4814,-3.4885,-3.4883,-3.495,-3.4975,-3.5045,-3.5063,-3.5164,-3.5182,-3.5197,-3.5201,-3.5198,-3.5197,-3.5226,-3.5218,-3.5206,-3.5204,-3.5203,-3.5202,0,-3.4428,-3.446,-3.4575,-3.4643,-3.4662,-3.4734,-3.4792,-3.4854,-3.4881,-3.4971,-3.4993,-3.5036,-3.5119,-3.5147,-3.5246,-3.5258,-3.5376,-3.5372,-3.5356,-3.5357,-3.5424,-3.5418,-3.5635,-3.5665,-3.5487,-3.5488,-3.549,0,-3.4517,-3.4587,-3.4663,-3.4711,-3.475,-3.4827,-3.4877,-3.49,-3.4952,-3.5029,-3.5082,-3.5165,-3.5232,-3.5364,-3.5404,-3.548,-3.5478,-3.5549,-3.5489,-3.5485,-3.548,-3.5476,-3.5484,-3.556,-3.5562,-3.5563,-3.5565,0,-3.4672,-3.4685,-3.4758,-3.4837,-3.4897,-3.496,-3.5021,-3.506,-3.5092,-3.515,-3.5236,-3.5289,-3.5392,-3.5474,-3.5552,-3.5588,-3.5582,-3.5583,-3.5603,-3.5601,-3.559,-3.5598,-3.5388,-3.5578,-3.5577,-3.5576,-3.5575,-3.5574,-3.4779,-3.4842,-3.4906,-3.4988,-3.5037,-3.5094,-3.5157,-3.5193,-3.5265,-3.5353,-3.5361,-3.5454,-3.5515,-3.562,-3.566,-3.5732,-3.5712,-3.5741,-3.5748,-3.5755,-3.5761,-3.5578,-3.5746,-3.5746,-3.5746,-3.5745,-3.5745,0,-3.4935,-3.4977,-3.5052,-3.5138,-3.5203,-3.5193,-3.5261,-3.5315,-3.5397,-3.5455,-3.5522,-3.5621,-3.5701,-3.5748,-3.5828,-3.5877,-3.5876,-3.5897,-3.5894,-3.5903,-3.5774,-3.5749,-3.5897,-3.5897,-3.5897,-3.5896,-3.5896,-3.5896,-3.5024,-3.513,-3.5151,-3.5282,-3.5322,-3.5415,-3.5454,-3.5507,-3.5554,-3.5665,-3.5733,-3.5763,-3.5817,-3.5901,-3.5974,-3.5986,-3.6016,-3.6039,-3.6049,-3.5927,-3.5912,-3.5897,-3.5874,-3.6045,-3.6045,-3.6172,-3.6173,-3.6174]}]]